Location: Peebles
(55.6412°N, 3.1714°W)
Time: 11:41:46
(UTC+00:00)

CUTE-I - Pass Details

Date: 10 December 2023
Orbit: 807 x 823 km, 98.7° (Epoch: 24 February)

Event Time Altitude Azimuth Distance (km) Brightness Sun altitude
Rises 05:01:51 0° 26° (NNE) 3,367 ? -27.6°
Reaches altitude 10° 05:05:20 10° 50° (NE) 2,431 ? -27.1°
Maximum altitude 05:08:19 15° 84° (E) 2,101 ? -26.7°
Drops below altitude 10° 05:11:18 10° 118° (ESE) 2,424 ? -26.3°
Sets 05:14:45 0° 141° (SE) 3,352 ? -25.8°
